This is the latest recevied weather packets stored in our database for station/object BM2MWA-13. If no packets are shown the sender has not sent any weather packets the latest 10 day(s).
| Time | Temp. | Humidity | Pressure | Rain* | Wind** | Luminosity | Snow |
|---|---|---|---|---|---|---|---|
| 1787592424 | 26.67° C | 90% | 1001.1 hPa | 0 mm | - | - | - |
| 1787591823 | 26.67° C | 92% | 1001 hPa | 0 mm | - | - | - |
| 1787591224 | 26.67° C | 91% | 1001.2 hPa | 0 mm | - | - | - |
| 1787590624 | 26.67° C | 93% | 1001.4 hPa | 0 mm | - | - | - |
| 1787590024 | 26.67° C | 92% | 1001.5 hPa | 0 mm | - | - | - |
| 1787589423 | 26.11° C | 95% | 1001.5 hPa | 0 mm | - | - | - |
| 1787588823 | 25.56° C | 96% | 1001.6 hPa | 0 mm | - | - | - |
| 1787588223 | 26.11° C | 96% | 1001.6 hPa | 0 mm | - | - | - |
| 1787587624 | 26.11° C | 93% | 1001.6 hPa | 0 mm | - | - | - |
| 1787587024 | 26.11° C | 94% | 1001.4 hPa | 0 mm | - | - | - |
| 1787586423 | 26.11° C | 92% | 1001.5 hPa | 0 mm | - | - | - |
| 1787585823 | 26.11° C | 93% | 1001.6 hPa | 0 mm | - | - | - |
| 1787585224 | 26.11° C | 93% | 1001.7 hPa | 0 mm | - | - | - |
| 1787584623 | 26.11° C | 95% | 1001.8 hPa | 0 mm | - | - | - |
| 1787584024 | 25.56° C | 96% | 1001.8 hPa | 0 mm | - | - | - |
| 1787583423 | 25.56° C | 96% | 1001.8 hPa | 0 mm | - | - | - |
| 1787582825 | 25.56° C | 97% | 1001.9 hPa | 0 mm | - | - | - |
| 1787582225 | 25.56° C | 96% | 1001.8 hPa | 0 mm | - | - | - |
| 1787581624 | 25.56° C | 96% | 1001.7 hPa | 0 mm | - | - | - |
| 1787581023 | 25.56° C | 95% | 1001.9 hPa | 0.51 mm | - | - | - |
| 1787580423 | 25.56° C | 96% | 1001.9 hPa | 1.52 mm | - | - | - |
| 1787579823 | 25.56° C | 96% | 1001.9 hPa | 1.52 mm | - | - | - |
| 1787579224 | 25.56° C | 97% | 1002.1 hPa | 2.03 mm | - | - | - |
| 1787578624 | 25.56° C | 97% | 1002.2 hPa | 2.03 mm | - | - | - |
| 1787578024 | 25.56° C | 95% | 1002.2 hPa | 2.03 mm | - | - | - |
* Rain latest hour (hover to see other rain measurements)
** Current wind speed in m/s (hover to see current wind gust speed)